星链-33642 (STARLINK-33642)

导读

STARLINK-33642是美国SpaceX公司星链(Starlink)星座中的一颗低轨通信卫星,于2025年5月13日发射入轨。作为星链全球卫星互联网计划的组成部分,它运行在近地轨道,依托星链成熟的星座技术,参与构建覆盖全球的高速低延迟宽带网络,可为偏远地区、特殊场景提供互联网接入服务。不过,同其他星链卫星一样,它也面临着轨道资源竞争、太空碰撞风险以及天文观测干扰等争议。

基本信息
目录编号:
63978
目录名称:
STARLINK-33642
国际标识:
2025-099AC
轨道中心:
EARTH
卫星名称:
星链-33642
卫星全名:
星链-33642 (STARLINK-33642)
卫星状态:
在轨 (已飞行397 天)
发射日期:
2025-05-13 UTC
国别 :
美国 (US)
星等 :
--
轨道信息
数据来源 国际轨道数据
星历时间: 2026-06-14T02:51:22+0800
11小时前
查看轨道信息
半长轴: 6861.167km
偏心率: 0.0000854
轨道倾角: 42.995°
近地点辐角 139.903°
升交点赤经 349.981°
平近点角 220.189°
近地点: 482.444km
远地点: 483.616km
周期: 94.266分钟
每日圈数: 15.275865
详细信息
固有亮度:
5
最大亮度:
2.5
卫星平台:
Starlink V1.0
覆盖范围:
全球
运营商:
太空探索技术公司
运营商所在国:
美国
制造商(研发单位):
太空探索技术公司
制造商所在国:
美国
使用方式:
暂无
卫星简介
Starlink 计划是 SpaceX 推出的全球卫星互联网项目,通过发射低轨道卫星,为全球尤其是偏远地区提供高速、低延迟的互联网服务。自 2019 年起,Starlink 已部署数千颗卫星,旨在缩小全球数字鸿沟,推动互联网普及。该项目还为军事、航空等行业提供通信支持,带来广泛经济效益。
2D轨道图
3D轨道图
轨道高度分析图
轨道倾角分析图
轨道综合分析图
查看轨道综合分析图